Data supplied by UK-AIR on 9/6/2008
All Data GMT hour ending 
Status: R =Ratified P=Provisional,P*=As supplied
,,Narberth,,,,,,,,,,,,,,,,,,,,,,,
Date,time,"PM10 particulate matter (Hourly measured)",status,unit,"Nitric oxide",status,unit,"Nitrogen dioxide",status,unit,"Nitrogen oxides as nitrogen dioxide",status,unit,"Ozone",status,unit,"Sulphur dioxide",status,unit
 
01-01-2006,01:00,13,R,ugm-3 (GRAV EQ),1.4,R,ugm-3,1.0,R,ugm-3,3.1,R,ugm-3,72,R,ugm-3,4.3,R,ugm-3
01-01-2006,02:00,13,R,ugm-3 (GRAV EQ),0.6,R,ugm-3,2.1,R,ugm-3,3.1,R,ugm-3,,,,,,
01-01-2006,03:00,12,R,ugm-3 (GRAV EQ),1.0,R,ugm-3,1.5,R,ugm-3,3.1,R,ugm-3,68,R,ugm-3,3.7,R,ugm-3
01-01-2006,04:00,16,R,ugm-3 (GRAV EQ),1.0,R,ugm-3,2.3,R,ugm-3,3.8,R,ugm-3,60,R,ugm-3,3.7,R,ugm-3
01-01-2006,05:00,18,R,ugm-3 (GRAV EQ),1.8,R,ugm-3,0.8,R,ugm-3,3.4,R,ugm-3,60,R,ugm-3,3.2,R,ugm-3
01-01-2006,06:00,18,R,ugm-3 (GRAV EQ),1.3,R,ugm-3,1.1,R,ugm-3,3.1,R,ugm-3,62,R,ugm-3,3.7,R,ugm-3
01-01-2006,07:00,20,R,ugm-3 (GRAV EQ),1.3,R,ugm-3,1.1,R,ugm-3,3.1,R,ugm-3,66,R,ugm-3,4.3,R,ugm-3
01-01-2006,08:00,20,R,ugm-3 (GRAV EQ),2.0,R,ugm-3,0.0,R,ugm-3,3.1,R,ugm-3,72,R,ugm-3,4.3,R,ugm-3
01-01-2006,09:00,22,R,ugm-3 (GRAV EQ),1.3,R,ugm-3,1.1,R,ugm-3,3.1,R,ugm-3,78,R,ugm-3,2.1,R,ugm-3
01-01-2006,10:00,22,R,ugm-3 (GRAV EQ),1.8,R,ugm-3,0.4,R,ugm-3,3.1,R,ugm-3,74,R,ugm-3,3.7,R,ugm-3
01-01-2006,11:00,25,R,ugm-3 (GRAV EQ),1.5,R,ugm-3,0.8,R,ugm-3,3.1,R,ugm-3,74,R,ugm-3,3.2,R,ugm-3
01-01-2006,12:00,21,R,ugm-3 (GRAV EQ),1.8,R,ugm-3,0.4,R,ugm-3,3.1,R,ugm-3,74,R,ugm-3,4.3,R,ugm-3
01-01-2006,13:00,18,R,ugm-3 (GRAV EQ),1.5,R,ugm-3,0.8,R,ugm-3,3.1,R,ugm-3,74,R,ugm-3,3.7,R,ugm-3
01-01-2006,14:00,21,R,ugm-3 (GRAV EQ),1.8,R,ugm-3,0.8,R,ugm-3,3.4,R,ugm-3,76,R,ugm-3,4.3,R,ugm-3
01-01-2006,15:00,20,R,ugm-3 (GRAV EQ),1.8,R,ugm-3,0.4,R,ugm-3,3.1,R,ugm-3,74,R,ugm-3,2.7,R,ugm-3
01-01-2006,16:00,20,R,ugm-3 (GRAV EQ),2.0,R,ugm-3,0.4,R,ugm-3,3.4,R,ugm-3,72,R,ugm-3,4.3,R,ugm-3
01-01-2006,17:00,17,R,ugm-3 (GRAV EQ),1.8,R,ugm-3,0.4,R,ugm-3,3.1,R,ugm-3,78,R,ugm-3,3.2,R,ugm-3
01-01-2006,18:00,17,R,ugm-3 (GRAV EQ),1.8,R,ugm-3,1.5,R,ugm-3,4.2,R,ugm-3,72,R,ugm-3,3.7,R,ugm-3
01-01-2006,19:00,17,R,ugm-3 (GRAV EQ),1.8,R,ugm-3,1.5,R,ugm-3,4.2,R,ugm-3,76,R,ugm-3,3.7,R,ugm-3
01-01-2006,20:00,20,R,ugm-3 (GRAV EQ),1.8,R,ugm-3,1.1,R,ugm-3,3.8,R,ugm-3,72,R,ugm-3,2.1,R,ugm-3
01-01-2006,21:00,20,R,ugm-3 (GRAV EQ),1.3,R,ugm-3,1.1,R,ugm-3,3.1,R,ugm-3,72,R,ugm-3,2.7,R,ugm-3
01-01-2006,22:00,20,R,ugm-3 (GRAV EQ),1.8,R,ugm-3,0.4,R,ugm-3,3.1,R,ugm-3,74,R,ugm-3,3.7,R,ugm-3
01-01-2006,23:00,21,R,ugm-3 (GRAV EQ),2.0,R,ugm-3,1.1,R,ugm-3,4.2,R,ugm-3,72,R,ugm-3,4.3,R,ugm-3
01-01-2006,24:00,20,R,ugm-3 (GRAV EQ),2.0,R,ugm-3,1.5,R,ugm-3,4.6,R,ugm-3,68,R,ugm-3,3.7,R,ugm-3
02-01-2006,01:00,21,R,ugm-3 (GRAV EQ),0.6,R,ugm-3,3.1,R,ugm-3,4.0,R,ugm-3,64,R,ugm-3,3.5,R,ugm-3
02-01-2006,02:00,20,R,ugm-3 (GRAV EQ),1.0,R,ugm-3,2.5,R,ugm-3,4.0,R,ugm-3,,,,,,
02-01-2006,03:00,22,R,ugm-3 (GRAV EQ),1.0,R,ugm-3,1.1,R,ugm-3,2.7,R,ugm-3,62,R,ugm-3,3.7,R,ugm-3
02-01-2006,04:00,18,R,ugm-3 (GRAV EQ),0.8,R,ugm-3,1.5,R,ugm-3,2.7,R,ugm-3,60,R,ugm-3,3.2,R,ugm-3
02-01-2006,05:00,18,R,ugm-3 (GRAV EQ),1.0,R,ugm-3,1.9,R,ugm-3,3.4,R,ugm-3,56,R,ugm-3,3.7,R,ugm-3
02-01-2006,06:00,18,R,ugm-3 (GRAV EQ),0.8,R,ugm-3,3.1,R,ugm-3,4.2,R,ugm-3,56,R,ugm-3,3.7,R,ugm-3
02-01-2006,07:00,17,R,ugm-3 (GRAV EQ),1.0,R,ugm-3,2.3,R,ugm-3,3.8,R,ugm-3,62,R,ugm-3,2.1,R,ugm-3
02-01-2006,08:00,17,R,ugm-3 (GRAV EQ),1.0,R,ugm-3,3.4,R,ugm-3,5.0,R,ugm-3,62,R,ugm-3,3.7,R,ugm-3
02-01-2006,09:00,17,R,ugm-3 (GRAV EQ),1.0,R,ugm-3,3.1,R,ugm-3,4.6,R,ugm-3,56,R,ugm-3,4.3,R,ugm-3
02-01-2006,10:00,21,R,ugm-3 (GRAV EQ),1.0,R,ugm-3,4.6,R,ugm-3,6.1,R,ugm-3,54,R,ugm-3,4.3,R,ugm-3
02-01-2006,11:00,21,R,ugm-3 (GRAV EQ),1.0,R,ugm-3,3.1,R,ugm-3,4.6,R,ugm-3,60,R,ugm-3,4.3,R,ugm-3
02-01-2006,12:00,20,R,ugm-3 (GRAV EQ),1.0,R,ugm-3,3.1,R,ugm-3,4.6,R,ugm-3,66,R,ugm-3,3.7,R,ugm-3
02-01-2006,13:00,18,R,ugm-3 (GRAV EQ),1.0,R,ugm-3,3.1,R,ugm-3,4.6,R,ugm-3,70,R,ugm-3,3.7,R,ugm-3
02-01-2006,14:00,21,R,ugm-3 (GRAV EQ),1.0,R,ugm-3,3.8,R,ugm-3,5.3,R,ugm-3,70,R,ugm-3,5.3,R,ugm-3
02-01-2006,15:00,22,R,ugm-3 (GRAV EQ),1.3,R,ugm-3,7.4,R,ugm-3,9.4,R,ugm-3,58,R,ugm-3,4.3,R,ugm-3
02-01-2006,16:00,21,R,ugm-3 (GRAV EQ),1.8,R,ugm-3,5.9,R,ugm-3,8.6,R,ugm-3,50,R,ugm-3,4.3,R,ugm-3
02-01-2006,17:00,17,R,ugm-3 (GRAV EQ),1.0,R,ugm-3,5.9,R,ugm-3,7.4,R,ugm-3,58,R,ugm-3,4.3,R,ugm-3
02-01-2006,18:00,16,R,ugm-3 (GRAV EQ),1.0,R,ugm-3,5.5,R,ugm-3,7.1,R,ugm-3,56,R,ugm-3,2.7,R,ugm-3
02-01-2006,19:00,9,R,ugm-3 (GRAV EQ),1.0,R,ugm-3,3.8,R,ugm-3,5.3,R,ugm-3,64,R,ugm-3,3.7,R,ugm-3
02-01-2006,20:00,8,R,ugm-3 (GRAV EQ),1.0,R,ugm-3,2.7,R,ugm-3,4.2,R,ugm-3,68,R,ugm-3,3.7,R,ugm-3
02-01-2006,21:00,9,R,ugm-3 (GRAV EQ),1.0,R,ugm-3,2.7,R,ugm-3,4.2,R,ugm-3,74,R,ugm-3,2.1,R,ugm-3
02-01-2006,22:00,7,R,ugm-3 (GRAV EQ),1.0,R,ugm-3,1.5,R,ugm-3,3.1,R,ugm-3,74,R,ugm-3,3.2,R,ugm-3
02-01-2006,23:00,7,R,ugm-3 (GRAV EQ),1.0,R,ugm-3,1.1,R,ugm-3,2.7,R,ugm-3,78,R,ugm-3,3.2,R,ugm-3
02-01-2006,24:00,7,R,ugm-3 (GRAV EQ),1.0,R,ugm-3,1.1,R,ugm-3,2.7,R,ugm-3,78,R,ugm-3,4.3,R,ugm-3
03-01-2006,01:00,8,R,ugm-3 (GRAV EQ),1.0,R,ugm-3,0.6,R,ugm-3,2.1,R,ugm-3,80,R,ugm-3,2.1,R,ugm-3
03-01-2006,02:00,5,R,ugm-3 (GRAV EQ),0.6,R,ugm-3,1.5,R,ugm-3,2.5,R,ugm-3,,,,,,
03-01-2006,03:00,5,R,ugm-3 (GRAV EQ),1.0,R,ugm-3,1.9,R,ugm-3,3.4,R,ugm-3,82,R,ugm-3,2.1,R,ugm-3
03-01-2006,04:00,4,R,ugm-3 (GRAV EQ),1.0,R,ugm-3,0.4,R,ugm-3,1.9,R,ugm-3,86,R,ugm-3,1.1,R,ugm-3
03-01-2006,05:00,4,R,ugm-3 (GRAV EQ),0.8,R,ugm-3,0.8,R,ugm-3,1.9,R,ugm-3,86,R,ugm-3,2.1,R,ugm-3
03-01-2006,06:00,4,R,ugm-3 (GRAV EQ),1.0,R,ugm-3,1.1,R,ugm-3,2.7,R,ugm-3,82,R,ugm-3,2.1,R,ugm-3
03-01-2006,07:00,5,R,ugm-3 (GRAV EQ),1.0,R,ugm-3,1.9,R,ugm-3,3.4,R,ugm-3,78,R,ugm-3,2.1,R,ugm-3
03-01-2006,08:00,7,R,ugm-3 (GRAV EQ),0.8,R,ugm-3,2.7,R,ugm-3,3.8,R,ugm-3,80,R,ugm-3,1.6,R,ugm-3
03-01-2006,09:00,8,R,ugm-3 (GRAV EQ),1.0,R,ugm-3,3.8,R,ugm-3,5.3,R,ugm-3,76,R,ugm-3,2.1,R,ugm-3
03-01-2006,10:00,7,R,ugm-3 (GRAV EQ),1.0,R,ugm-3,2.7,R,ugm-3,4.2,R,ugm-3,74,R,ugm-3,1.6,R,ugm-3
03-01-2006,11:00,7,R,ugm-3 (GRAV EQ),1.0,R,ugm-3,3.4,R,ugm-3,5.0,R,ugm-3,68,R,ugm-3,2.1,R,ugm-3
03-01-2006,12:00,7,R,ugm-3 (GRAV EQ),1.0,R,ugm-3,3.1,R,ugm-3,4.6,R,ugm-3,56,R,ugm-3,1.6,R,ugm-3
03-01-2006,13:00,5,R,ugm-3 (GRAV EQ),1.0,R,ugm-3,3.1,R,ugm-3,4.6,R,ugm-3,62,R,ugm-3,1.1,R,ugm-3
03-01-2006,14:00,5,R,ugm-3 (GRAV EQ),1.0,R,ugm-3,2.3,R,ugm-3,3.8,R,ugm-3,66,R,ugm-3,2.1,R,ugm-3
03-01-2006,15:00,8,R,ugm-3 (GRAV EQ),1.0,R,ugm-3,2.7,R,ugm-3,4.2,R,ugm-3,66,R,ugm-3,2.1,R,ugm-3
03-01-2006,16:00,12,R,ugm-3 (GRAV EQ),1.0,R,ugm-3,0.8,R,ugm-3,2.3,R,ugm-3,72,R,ugm-3,2.1,R,ugm-3
03-01-2006,17:00,13,R,ugm-3 (GRAV EQ),1.8,R,ugm-3,4.0,R,ugm-3,6.7,R,ugm-3,68,R,ugm-3,1.6,R,ugm-3
03-01-2006,18:00,16,R,ugm-3 (GRAV EQ),1.0,R,ugm-3,3.1,R,ugm-3,4.6,R,ugm-3,62,R,ugm-3,2.1,R,ugm-3
03-01-2006,19:00,17,R,ugm-3 (GRAV EQ),1.0,R,ugm-3,3.1,R,ugm-3,4.6,R,ugm-3,62,R,ugm-3,2.1,R,ugm-3
03-01-2006,20:00,17,R,ugm-3 (GRAV EQ),1.0,R,ugm-3,3.1,R,ugm-3,4.6,R,ugm-3,66,R,ugm-3,2.1,R,ugm-3
03-01-2006,21:00,17,R,ugm-3 (GRAV EQ),1.0,R,ugm-3,3.1,R,ugm-3,4.6,R,ugm-3,60,R,ugm-3,2.1,R,ugm-3
03-01-2006,22:00,16,R,ugm-3 (GRAV EQ),1.0,R,ugm-3,2.7,R,ugm-3,4.2,R,ugm-3,56,R,ugm-3,1.6,R,ugm-3
03-01-2006,23:00,13,R,ugm-3 (GRAV EQ),1.0,R,ugm-3,3.1,R,ugm-3,4.6,R,ugm-3,52,R,ugm-3,1.6,R,ugm-3
03-01-2006,24:00,7,R,ugm-3 (GRAV EQ),1.0,R,ugm-3,2.7,R,ugm-3,4.2,R,ugm-3,50,R,ugm-3,2.1,R,ugm-3
04-01-2006,01:00,7,R,ugm-3 (GRAV EQ),1.0,R,ugm-3,2.1,R,ugm-3,3.6,R,ugm-3,56,R,ugm-3,2.9,R,ugm-3
04-01-2006,02:00,5,R,ugm-3 (GRAV EQ),0.6,R,ugm-3,1.5,R,ugm-3,2.5,R,ugm-3,,,,,,
04-01-2006,03:00,5,R,ugm-3 (GRAV EQ),1.0,R,ugm-3,1.5,R,ugm-3,3.1,R,ugm-3,52,R,ugm-3,3.2,R,ugm-3
04-01-2006,04:00,9,R,ugm-3 (GRAV EQ),0.8,R,ugm-3,4.2,R,ugm-3,5.3,R,ugm-3,48,R,ugm-3,3.2,R,ugm-3
04-01-2006,05:00,12,R,ugm-3 (GRAV EQ),1.0,R,ugm-3,5.3,R,ugm-3,6.9,R,ugm-3,44,R,ugm-3,3.2,R,ugm-3
04-01-2006,06:00,17,R,ugm-3 (GRAV EQ),1.0,R,ugm-3,9.2,R,ugm-3,10.7,R,ugm-3,38,R,ugm-3,4.3,R,ugm-3
04-01-2006,07:00,16,R,ugm-3 (GRAV EQ),1.0,R,ugm-3,8.0,R,ugm-3,9.6,R,ugm-3,50,R,ugm-3,2.7,R,ugm-3
04-01-2006,08:00,14,R,ugm-3 (GRAV EQ),1.0,R,ugm-3,8.0,R,ugm-3,9.6,R,ugm-3,52,R,ugm-3,4.3,R,ugm-3
04-01-2006,09:00,13,R,ugm-3 (GRAV EQ),1.0,R,ugm-3,9.6,R,ugm-3,11.1,R,ugm-3,52,R,ugm-3,2.7,R,ugm-3
04-01-2006,10:00,,,,,,,,,,,,,,,,,,
04-01-2006,11:00,14,R,ugm-3 (GRAV EQ),1.3,R,ugm-3,7.3,R,ugm-3,9.2,R,ugm-3,62,R,ugm-3,2.9,R,ugm-3
04-01-2006,12:00,13,R,ugm-3 (GRAV EQ),1.5,R,ugm-3,6.9,R,ugm-3,9.2,R,ugm-3,62,R,ugm-3,3.7,R,ugm-3
04-01-2006,13:00,12,R,ugm-3 (GRAV EQ),2.0,R,ugm-3,12.0,R,ugm-3,15.1,R,ugm-3,62,R,ugm-3,4.3,R,ugm-3
04-01-2006,14:00,12,R,ugm-3 (GRAV EQ),1.8,R,ugm-3,6.5,R,ugm-3,9.2,R,ugm-3,70,R,ugm-3,3.2,R,ugm-3
04-01-2006,15:00,10,R,ugm-3 (GRAV EQ),1.0,R,ugm-3,5.7,R,ugm-3,7.3,R,ugm-3,72,R,ugm-3,2.7,R,ugm-3
04-01-2006,16:00,13,R,ugm-3 (GRAV EQ),1.3,R,ugm-3,7.6,R,ugm-3,9.6,R,ugm-3,60,R,ugm-3,2.1,R,ugm-3
04-01-2006,17:00,10,R,ugm-3 (GRAV EQ),1.0,R,ugm-3,7.3,R,ugm-3,8.8,R,ugm-3,66,R,ugm-3,3.2,R,ugm-3
04-01-2006,18:00,14,R,ugm-3 (GRAV EQ),2.8,R,ugm-3,14.3,R,ugm-3,18.5,R,ugm-3,60,R,ugm-3,2.7,R,ugm-3
04-01-2006,19:00,16,R,ugm-3 (GRAV EQ),2.0,R,ugm-3,10.9,R,ugm-3,13.9,R,ugm-3,62,R,ugm-3,4.3,R,ugm-3
04-01-2006,20:00,17,R,ugm-3 (GRAV EQ),1.3,R,ugm-3,13.6,R,ugm-3,15.5,R,ugm-3,48,R,ugm-3,2.7,R,ugm-3
04-01-2006,21:00,17,R,ugm-3 (GRAV EQ),1.0,R,ugm-3,12.8,R,ugm-3,14.3,R,ugm-3,50,R,ugm-3,3.7,R,ugm-3
04-01-2006,22:00,16,R,ugm-3 (GRAV EQ),1.0,R,ugm-3,12.0,R,ugm-3,13.6,R,ugm-3,50,R,ugm-3,2.7,R,ugm-3
04-01-2006,23:00,14,R,ugm-3 (GRAV EQ),1.0,R,ugm-3,19.7,R,ugm-3,21.2,R,ugm-3,28,R,ugm-3,4.3,R,ugm-3
04-01-2006,24:00,22,R,ugm-3 (GRAV EQ),1.0,R,ugm-3,32.7,R,ugm-3,34.2,R,ugm-3,10,R,ugm-3,4.3,R,ugm-3
05-01-2006,01:00,20,R,ugm-3 (GRAV EQ),1.0,R,ugm-3,30.4,R,ugm-3,31.9,R,ugm-3,14,R,ugm-3,3.5,R,ugm-3
05-01-2006,02:00,18,R,ugm-3 (GRAV EQ),1.0,R,ugm-3,28.7,R,ugm-3,30.2,R,ugm-3,,,,,,
05-01-2006,03:00,17,R,ugm-3 (GRAV EQ),1.0,R,ugm-3,25.0,R,ugm-3,26.5,R,ugm-3,20,R,ugm-3,2.7,R,ugm-3
05-01-2006,04:00,14,R,ugm-3 (GRAV EQ),1.0,R,ugm-3,16.2,R,ugm-3,17.8,R,ugm-3,34,R,ugm-3,0.5,R,ugm-3
05-01-2006,05:00,14,R,ugm-3 (GRAV EQ),1.0,R,ugm-3,13.9,R,ugm-3,15.5,R,ugm-3,38,R,ugm-3,0.0,R,ugm-3
05-01-2006,06:00,14,R,ugm-3 (GRAV EQ),0.8,R,ugm-3,13.6,R,ugm-3,14.7,R,ugm-3,36,R,ugm-3,0.0,R,ugm-3
05-01-2006,07:00,14,R,ugm-3 (GRAV EQ),1.0,R,ugm-3,12.8,R,ugm-3,14.3,R,ugm-3,34,R,ugm-3,0.0,R,ugm-3
05-01-2006,08:00,16,R,ugm-3 (GRAV EQ),0.8,R,ugm-3,15.1,R,ugm-3,16.2,R,ugm-3,28,R,ugm-3,0.5,R,ugm-3
05-01-2006,09:00,18,R,ugm-3 (GRAV EQ),1.0,R,ugm-3,20.8,R,ugm-3,22.3,R,ugm-3,24,R,ugm-3,2.7,R,ugm-3
05-01-2006,10:00,18,R,ugm-3 (GRAV EQ),2.8,R,ugm-3,21.6,R,ugm-3,25.8,R,ugm-3,24,R,ugm-3,4.3,R,ugm-3
05-01-2006,11:00,17,R,ugm-3 (GRAV EQ),4.6,R,ugm-3,22.9,R,ugm-3,30.0,R,ugm-3,24,R,ugm-3,5.3,R,ugm-3
05-01-2006,12:00,18,R,ugm-3 (GRAV EQ),7.4,R,ugm-3,27.3,R,ugm-3,38.6,R,ugm-3,16,R,ugm-3,10.4,R,ugm-3
05-01-2006,13:00,18,R,ugm-3 (GRAV EQ),7.1,R,ugm-3,30.0,R,ugm-3,40.9,R,ugm-3,14,R,ugm-3,7.4,R,ugm-3
05-01-2006,14:00,20,R,ugm-3 (GRAV EQ),5.1,R,ugm-3,33.8,R,ugm-3,41.6,R,ugm-3,8,R,ugm-3,8.2,R,ugm-3
05-01-2006,15:00,22,R,ugm-3 (GRAV EQ),5.4,R,ugm-3,33.4,R,ugm-3,41.6,R,ugm-3,10,R,ugm-3,9.3,R,ugm-3
05-01-2006,16:00,22,R,ugm-3 (GRAV EQ),6.1,R,ugm-3,35.7,R,ugm-3,45.1,R,ugm-3,8,R,ugm-3,14.1,R,ugm-3
05-01-2006,17:00,23,R,ugm-3 (GRAV EQ),4.8,R,ugm-3,37.6,R,ugm-3,44.9,R,ugm-3,8,R,ugm-3,12.5,R,ugm-3
05-01-2006,18:00,25,R,ugm-3 (GRAV EQ),1.8,R,ugm-3,39.3,R,ugm-3,42.0,R,ugm-3,6,R,ugm-3,4.8,R,ugm-3
05-01-2006,19:00,25,R,ugm-3 (GRAV EQ),1.0,R,ugm-3,37.8,R,ugm-3,39.3,R,ugm-3,10,R,ugm-3,4.3,R,ugm-3
05-01-2006,20:00,21,R,ugm-3 (GRAV EQ),1.0,R,ugm-3,32.9,R,ugm-3,34.4,R,ugm-3,16,R,ugm-3,0.5,R,ugm-3
05-01-2006,21:00,21,R,ugm-3 (GRAV EQ),0.8,R,ugm-3,29.6,R,ugm-3,30.8,R,ugm-3,24,R,ugm-3,3.7,R,ugm-3
05-01-2006,22:00,20,R,ugm-3 (GRAV EQ),0.8,R,ugm-3,25.0,R,ugm-3,26.2,R,ugm-3,26,R,ugm-3,0.0,R,ugm-3
05-01-2006,23:00,17,R,ugm-3 (GRAV EQ),0.5,R,ugm-3,19.3,R,ugm-3,20.1,R,ugm-3,34,R,ugm-3,0.5,R,ugm-3
05-01-2006,24:00,18,R,ugm-3 (GRAV EQ),1.0,R,ugm-3,21.2,R,ugm-3,22.7,R,ugm-3,26,R,ugm-3,1.6,R,ugm-3
06-01-2006,01:00,16,R,ugm-3 (GRAV EQ),0.4,R,ugm-3,18.0,R,ugm-3,18.5,R,ugm-3,30,R,ugm-3,6.4,R,ugm-3
06-01-2006,02:00,17,R,ugm-3 (GRAV EQ),1.0,R,ugm-3,13.9,R,ugm-3,15.5,R,ugm-3,,,,,,
06-01-2006,03:00,18,R,ugm-3 (GRAV EQ),1.0,R,ugm-3,13.9,R,ugm-3,15.5,R,ugm-3,26,R,ugm-3,4.3,R,ugm-3
06-01-2006,04:00,20,R,ugm-3 (GRAV EQ),0.5,R,ugm-3,14.7,R,ugm-3,15.5,R,ugm-3,26,R,ugm-3,6.4,R,ugm-3
06-01-2006,05:00,20,R,ugm-3 (GRAV EQ),1.0,R,ugm-3,11.7,R,ugm-3,13.2,R,ugm-3,26,R,ugm-3,3.7,R,ugm-3
06-01-2006,06:00,20,R,ugm-3 (GRAV EQ),1.0,R,ugm-3,10.1,R,ugm-3,11.7,R,ugm-3,26,R,ugm-3,4.3,R,ugm-3
06-01-2006,07:00,18,R,ugm-3 (GRAV EQ),0.5,R,ugm-3,9.7,R,ugm-3,10.5,R,ugm-3,28,R,ugm-3,3.7,R,ugm-3
06-01-2006,08:00,17,R,ugm-3 (GRAV EQ),1.0,R,ugm-3,7.6,R,ugm-3,9.2,R,ugm-3,28,R,ugm-3,3.2,R,ugm-3
06-01-2006,09:00,18,R,ugm-3 (GRAV EQ),0.8,R,ugm-3,9.4,R,ugm-3,10.5,R,ugm-3,26,R,ugm-3,2.7,R,ugm-3
06-01-2006,10:00,18,R,ugm-3 (GRAV EQ),1.3,R,ugm-3,9.7,R,ugm-3,11.7,R,ugm-3,24,R,ugm-3,3.7,R,ugm-3
06-01-2006,11:00,20,R,ugm-3 (GRAV EQ),1.5,R,ugm-3,11.7,R,ugm-3,13.9,R,ugm-3,24,R,ugm-3,4.3,R,ugm-3
06-01-2006,12:00,18,R,ugm-3 (GRAV EQ),2.0,R,ugm-3,10.9,R,ugm-3,13.9,R,ugm-3,24,R,ugm-3,3.7,R,ugm-3
06-01-2006,13:00,20,R,ugm-3 (GRAV EQ),2.3,R,ugm-3,10.1,R,ugm-3,13.6,R,ugm-3,24,R,ugm-3,3.7,R,ugm-3
06-01-2006,14:00,20,R,ugm-3 (GRAV EQ),1.8,R,ugm-3,10.9,R,ugm-3,13.6,R,ugm-3,24,R,ugm-3,3.7,R,ugm-3
06-01-2006,15:00,18,R,ugm-3 (GRAV EQ),1.8,R,ugm-3,11.7,R,ugm-3,14.3,R,ugm-3,22,R,ugm-3,4.3,R,ugm-3
06-01-2006,16:00,17,R,ugm-3 (GRAV EQ),1.3,R,ugm-3,12.0,R,ugm-3,13.9,R,ugm-3,20,R,ugm-3,3.7,R,ugm-3
06-01-2006,17:00,18,R,ugm-3 (GRAV EQ),1.0,R,ugm-3,15.1,R,ugm-3,16.6,R,ugm-3,14,R,ugm-3,3.7,R,ugm-3
06-01-2006,18:00,20,R,ugm-3 (GRAV EQ),1.0,R,ugm-3,15.5,R,ugm-3,17.0,R,ugm-3,12,R,ugm-3,4.3,R,ugm-3
06-01-2006,19:00,20,R,ugm-3 (GRAV EQ),1.0,R,ugm-3,15.5,R,ugm-3,17.0,R,ugm-3,10,R,ugm-3,3.7,R,ugm-3
06-01-2006,20:00,20,R,ugm-3 (GRAV EQ),1.0,R,ugm-3,16.6,R,ugm-3,18.1,R,ugm-3,8,R,ugm-3,4.3,R,ugm-3
06-01-2006,21:00,20,R,ugm-3 (GRAV EQ),1.0,R,ugm-3,15.9,R,ugm-3,17.4,R,ugm-3,8,R,ugm-3,3.2,R,ugm-3
06-01-2006,22:00,20,R,ugm-3 (GRAV EQ),1.0,R,ugm-3,16.2,R,ugm-3,17.8,R,ugm-3,8,R,ugm-3,2.7,R,ugm-3
06-01-2006,23:00,22,R,ugm-3 (GRAV EQ),1.0,R,ugm-3,16.6,R,ugm-3,18.1,R,ugm-3,10,R,ugm-3,3.7,R,ugm-3
06-01-2006,24:00,22,R,ugm-3 (GRAV EQ),1.0,R,ugm-3,17.0,R,ugm-3,18.5,R,ugm-3,8,R,ugm-3,3.7,R,ugm-3
07-01-2006,01:00,23,R,ugm-3 (GRAV EQ),1.0,R,ugm-3,19.5,R,ugm-3,21.0,R,ugm-3,16,R,ugm-3,3.5,R,ugm-3
07-01-2006,02:00,25,R,ugm-3 (GRAV EQ),1.0,R,ugm-3,22.3,R,ugm-3,23.9,R,ugm-3,,,,,,
07-01-2006,03:00,25,R,ugm-3 (GRAV EQ),1.0,R,ugm-3,26.0,R,ugm-3,27.5,R,ugm-3,12,R,ugm-3,3.7,R,ugm-3
07-01-2006,04:00,25,R,ugm-3 (GRAV EQ),1.0,R,ugm-3,30.9,R,ugm-3,32.5,R,ugm-3,10,R,ugm-3,4.3,R,ugm-3
07-01-2006,05:00,25,R,ugm-3 (GRAV EQ),1.0,R,ugm-3,30.6,R,ugm-3,32.1,R,ugm-3,10,R,ugm-3,3.2,R,ugm-3
07-01-2006,06:00,25,R,ugm-3 (GRAV EQ),1.0,R,ugm-3,28.3,R,ugm-3,29.8,R,ugm-3,10,R,ugm-3,2.7,R,ugm-3
07-01-2006,07:00,25,R,ugm-3 (GRAV EQ),1.0,R,ugm-3,27.9,R,ugm-3,29.4,R,ugm-3,16,R,ugm-3,4.3,R,ugm-3
07-01-2006,08:00,26,R,ugm-3 (GRAV EQ),1.3,R,ugm-3,30.2,R,ugm-3,32.1,R,ugm-3,10,R,ugm-3,4.3,R,ugm-3
07-01-2006,09:00,26,R,ugm-3 (GRAV EQ),2.0,R,ugm-3,29.4,R,ugm-3,32.5,R,ugm-3,8,R,ugm-3,4.3,R,ugm-3
07-01-2006,10:00,26,R,ugm-3 (GRAV EQ),4.9,R,ugm-3,27.7,R,ugm-3,35.1,R,ugm-3,12,R,ugm-3,4.3,R,ugm-3
07-01-2006,11:00,26,R,ugm-3 (GRAV EQ),6.9,R,ugm-3,25.8,R,ugm-3,36.3,R,ugm-3,16,R,ugm-3,3.7,R,ugm-3
07-01-2006,12:00,26,R,ugm-3 (GRAV EQ),6.4,R,ugm-3,23.1,R,ugm-3,32.9,R,ugm-3,22,R,ugm-3,4.3,R,ugm-3
07-01-2006,13:00,26,R,ugm-3 (GRAV EQ),5.4,R,ugm-3,23.1,R,ugm-3,31.3,R,ugm-3,28,R,ugm-3,8.0,R,ugm-3
07-01-2006,14:00,29,R,ugm-3 (GRAV EQ),6.1,R,ugm-3,28.3,R,ugm-3,37.6,R,ugm-3,22,R,ugm-3,10.1,R,ugm-3
07-01-2006,15:00,29,R,ugm-3 (GRAV EQ),11.4,R,ugm-3,34.6,R,ugm-3,52.0,R,ugm-3,18,R,ugm-3,21.0,R,ugm-3
07-01-2006,16:00,30,R,ugm-3 (GRAV EQ),7.6,R,ugm-3,37.8,R,ugm-3,49.5,R,ugm-3,14,R,ugm-3,18.9,R,ugm-3
07-01-2006,17:00,30,R,ugm-3 (GRAV EQ),6.9,R,ugm-3,39.3,R,ugm-3,49.9,R,ugm-3,8,R,ugm-3,15.2,R,ugm-3
07-01-2006,18:00,34,R,ugm-3 (GRAV EQ),11.9,R,ugm-3,42.4,R,ugm-3,60.5,R,ugm-3,6,R,ugm-3,17.3,R,ugm-3
07-01-2006,19:00,34,R,ugm-3 (GRAV EQ),21.0,R,ugm-3,43.5,R,ugm-3,75.6,R,ugm-3,6,R,ugm-3,22.6,R,ugm-3
07-01-2006,20:00,36,R,ugm-3 (GRAV EQ),23.1,R,ugm-3,43.9,R,ugm-3,79.3,R,ugm-3,6,R,ugm-3,21.5,R,ugm-3
07-01-2006,21:00,33,R,ugm-3 (GRAV EQ),7.9,R,ugm-3,44.1,R,ugm-3,56.2,R,ugm-3,6,R,ugm-3,17.8,R,ugm-3
07-01-2006,22:00,34,R,ugm-3 (GRAV EQ),9.9,R,ugm-3,44.5,R,ugm-3,59.6,R,ugm-3,6,R,ugm-3,21.0,R,ugm-3
07-01-2006,23:00,30,R,ugm-3 (GRAV EQ),6.4,R,ugm-3,44.5,R,ugm-3,54.2,R,ugm-3,6,R,ugm-3,20.5,R,ugm-3
07-01-2006,24:00,26,R,ugm-3 (GRAV EQ),2.0,R,ugm-3,34.6,R,ugm-3,37.6,R,ugm-3,18,R,ugm-3,12.8,R,ugm-3
08-01-2006,01:00,22,R,ugm-3 (GRAV EQ),1.0,R,ugm-3,24.8,R,ugm-3,26.4,R,ugm-3,20,R,ugm-3,6.4,R,ugm-3
08-01-2006,02:00,21,R,ugm-3 (GRAV EQ),1.0,R,ugm-3,16.0,R,ugm-3,17.6,R,ugm-3,,,,,,
08-01-2006,03:00,17,R,ugm-3 (GRAV EQ),0.8,R,ugm-3,13.9,R,ugm-3,15.1,R,ugm-3,26,R,ugm-3,3.7,R,ugm-3
08-01-2006,04:00,16,R,ugm-3 (GRAV EQ),1.0,R,ugm-3,12.4,R,ugm-3,13.9,R,ugm-3,26,R,ugm-3,2.7,R,ugm-3
08-01-2006,05:00,16,R,ugm-3 (GRAV EQ),0.8,R,ugm-3,15.9,R,ugm-3,17.0,R,ugm-3,22,R,ugm-3,2.7,R,ugm-3
08-01-2006,06:00,16,R,ugm-3 (GRAV EQ),1.0,R,ugm-3,15.5,R,ugm-3,17.0,R,ugm-3,20,R,ugm-3,1.1,R,ugm-3
08-01-2006,07:00,17,R,ugm-3 (GRAV EQ),1.0,R,ugm-3,15.9,R,ugm-3,17.4,R,ugm-3,20,R,ugm-3,2.1,R,ugm-3
08-01-2006,08:00,16,R,ugm-3 (GRAV EQ),1.0,R,ugm-3,18.1,R,ugm-3,19.7,R,ugm-3,20,R,ugm-3,2.7,R,ugm-3
08-01-2006,09:00,18,R,ugm-3 (GRAV EQ),1.3,R,ugm-3,21.4,R,ugm-3,23.3,R,ugm-3,16,R,ugm-3,4.3,R,ugm-3
08-01-2006,10:00,20,R,ugm-3 (GRAV EQ),4.6,R,ugm-3,22.0,R,ugm-3,29.0,R,ugm-3,18,R,ugm-3,4.3,R,ugm-3
08-01-2006,11:00,20,R,ugm-3 (GRAV EQ),6.6,R,ugm-3,20.4,R,ugm-3,30.6,R,ugm-3,22,R,ugm-3,4.8,R,ugm-3
08-01-2006,12:00,20,R,ugm-3 (GRAV EQ),6.9,R,ugm-3,18.1,R,ugm-3,28.7,R,ugm-3,26,R,ugm-3,5.3,R,ugm-3
08-01-2006,13:00,22,R,ugm-3 (GRAV EQ),5.1,R,ugm-3,18.5,R,ugm-3,26.4,R,ugm-3,30,R,ugm-3,5.3,R,ugm-3
08-01-2006,14:00,25,R,ugm-3 (GRAV EQ),4.4,R,ugm-3,17.4,R,ugm-3,24.1,R,ugm-3,30,R,ugm-3,4.3,R,ugm-3
08-01-2006,15:00,23,R,ugm-3 (GRAV EQ),3.8,R,ugm-3,17.6,R,ugm-3,23.3,R,ugm-3,36,R,ugm-3,4.3,R,ugm-3
08-01-2006,16:00,22,R,ugm-3 (GRAV EQ),1.8,R,ugm-3,20.2,R,ugm-3,22.9,R,ugm-3,30,R,ugm-3,4.3,R,ugm-3
08-01-2006,17:00,23,R,ugm-3 (GRAV EQ),0.8,R,ugm-3,22.5,R,ugm-3,23.7,R,ugm-3,24,R,ugm-3,4.3,R,ugm-3
08-01-2006,18:00,26,R,ugm-3 (GRAV EQ),1.0,R,ugm-3,24.8,R,ugm-3,26.4,R,ugm-3,20,R,ugm-3,4.3,R,ugm-3
08-01-2006,19:00,25,R,ugm-3 (GRAV EQ),1.0,R,ugm-3,21.8,R,ugm-3,23.3,R,ugm-3,26,R,ugm-3,4.3,R,ugm-3
08-01-2006,20:00,22,R,ugm-3 (GRAV EQ),1.0,R,ugm-3,18.1,R,ugm-3,19.7,R,ugm-3,30,R,ugm-3,2.7,R,ugm-3
08-01-2006,21:00,23,R,ugm-3 (GRAV EQ),0.8,R,ugm-3,17.8,R,ugm-3,18.9,R,ugm-3,30,R,ugm-3,1.6,R,ugm-3
08-01-2006,22:00,23,R,ugm-3 (GRAV EQ),1.0,R,ugm-3,18.5,R,ugm-3,20.1,R,ugm-3,28,R,ugm-3,3.2,R,ugm-3
08-01-2006,23:00,22,R,ugm-3 (GRAV EQ),1.0,R,ugm-3,15.9,R,ugm-3,17.4,R,ugm-3,32,R,ugm-3,3.2,R,ugm-3
08-01-2006,24:00,21,R,ugm-3 (GRAV EQ),0.8,R,ugm-3,18.1,R,ugm-3,19.3,R,ugm-3,30,R,ugm-3,4.3,R,ugm-3
09-01-2006,01:00,22,R,ugm-3 (GRAV EQ),2.0,R,ugm-3,19.3,R,ugm-3,22.3,R,ugm-3,26,R,ugm-3,4.3,R,ugm-3
09-01-2006,02:00,20,R,ugm-3 (GRAV EQ),2.0,R,ugm-3,17.8,R,ugm-3,20.8,R,ugm-3,,,,,,
09-01-2006,03:00,21,R,ugm-3 (GRAV EQ),2.0,R,ugm-3,19.5,R,ugm-3,22.5,R,ugm-3,22,R,ugm-3,5.9,R,ugm-3
09-01-2006,04:00,22,R,ugm-3 (GRAV EQ),2.0,R,ugm-3,19.5,R,ugm-3,22.5,R,ugm-3,20,R,ugm-3,5.3,R,ugm-3
09-01-2006,05:00,22,R,ugm-3 (GRAV EQ),2.0,R,ugm-3,18.3,R,ugm-3,21.4,R,ugm-3,18,R,ugm-3,4.3,R,ugm-3
09-01-2006,06:00,22,R,ugm-3 (GRAV EQ),2.0,R,ugm-3,16.8,R,ugm-3,19.9,R,ugm-3,20,R,ugm-3,4.3,R,ugm-3
09-01-2006,07:00,22,R,ugm-3 (GRAV EQ),2.0,R,ugm-3,17.2,R,ugm-3,20.2,R,ugm-3,18,R,ugm-3,4.3,R,ugm-3
09-01-2006,08:00,21,R,ugm-3 (GRAV EQ),3.0,R,ugm-3,18.7,R,ugm-3,23.3,R,ugm-3,16,R,ugm-3,3.7,R,ugm-3
09-01-2006,09:00,22,R,ugm-3 (GRAV EQ),9.1,R,ugm-3,21.4,R,ugm-3,35.3,R,ugm-3,12,R,ugm-3,3.7,R,ugm-3
09-01-2006,10:00,21,R,ugm-3 (GRAV EQ),13.0,R,ugm-3,23.1,R,ugm-3,43.0,R,ugm-3,8,R,ugm-3,2.1,R,ugm-3
09-01-2006,11:00,21,R,ugm-3 (GRAV EQ),5.4,R,ugm-3,19.3,R,ugm-3,27.5,R,ugm-3,12,R,ugm-3,3.2,R,ugm-3
09-01-2006,12:00,25,R,ugm-3 (GRAV EQ),10.1,R,ugm-3,24.3,R,ugm-3,39.7,R,ugm-3,8,R,ugm-3,2.7,R,ugm-3
09-01-2006,13:00,27,R,ugm-3 (GRAV EQ),12.4,R,ugm-3,26.9,R,ugm-3,45.8,R,ugm-3,8,R,ugm-3,3.7,R,ugm-3
09-01-2006,14:00,16,R,ugm-3 (GRAV EQ),5.3,R,ugm-3,24.3,R,ugm-3,32.3,R,ugm-3,18,R,ugm-3,5.3,R,ugm-3
09-01-2006,15:00,17,R,ugm-3 (GRAV EQ),4.3,R,ugm-3,22.2,R,ugm-3,28.7,R,ugm-3,20,R,ugm-3,6.9,R,ugm-3
09-01-2006,16:00,13,R,ugm-3 (GRAV EQ),3.5,R,ugm-3,20.2,R,ugm-3,25.6,R,ugm-3,26,R,ugm-3,4.3,R,ugm-3
09-01-2006,17:00,13,R,ugm-3 (GRAV EQ),2.5,R,ugm-3,19.5,R,ugm-3,23.3,R,ugm-3,28,R,ugm-3,4.3,R,ugm-3
09-01-2006,18:00,14,R,ugm-3 (GRAV EQ),2.5,R,ugm-3,19.9,R,ugm-3,23.7,R,ugm-3,24,R,ugm-3,3.2,R,ugm-3
09-01-2006,19:00,16,R,ugm-3 (GRAV EQ),2.0,R,ugm-3,15.7,R,ugm-3,18.7,R,ugm-3,30,R,ugm-3,3.2,R,ugm-3
09-01-2006,20:00,14,R,ugm-3 (GRAV EQ),2.0,R,ugm-3,12.4,R,ugm-3,15.5,R,ugm-3,40,R,ugm-3,2.7,R,ugm-3
09-01-2006,21:00,16,R,ugm-3 (GRAV EQ),2.0,R,ugm-3,8.2,R,ugm-3,11.3,R,ugm-3,54,R,ugm-3,2.1,R,ugm-3
09-01-2006,22:00,18,R,ugm-3 (GRAV EQ),2.0,R,ugm-3,8.6,R,ugm-3,11.7,R,ugm-3,54,R,ugm-3,3.2,R,ugm-3
09-01-2006,23:00,20,R,ugm-3 (GRAV EQ),2.0,R,ugm-3,7.8,R,ugm-3,10.9,R,ugm-3,64,R,ugm-3,3.7,R,ugm-3
09-01-2006,24:00,20,R,ugm-3 (GRAV EQ),2.0,R,ugm-3,6.7,R,ugm-3,9.7,R,ugm-3,68,R,ugm-3,3.2,R,ugm-3
10-01-2006,01:00,17,R,ugm-3 (GRAV EQ),1.0,R,ugm-3,9.4,R,ugm-3,10.9,R,ugm-3,70,R,ugm-3,2.1,R,ugm-3
10-01-2006,02:00,20,R,ugm-3 (GRAV EQ),1.0,R,ugm-3,9.4,R,ugm-3,10.9,R,ugm-3,,,,,,
10-01-2006,03:00,17,R,ugm-3 (GRAV EQ),1.0,R,ugm-3,9.4,R,ugm-3,10.9,R,ugm-3,68,R,ugm-3,1.6,R,ugm-3
10-01-2006,04:00,16,R,ugm-3 (GRAV EQ),1.3,R,ugm-3,9.0,R,ugm-3,10.9,R,ugm-3,68,R,ugm-3,3.2,R,ugm-3
10-01-2006,05:00,13,R,ugm-3 (GRAV EQ),1.0,R,ugm-3,9.0,R,ugm-3,10.5,R,ugm-3,74,R,ugm-3,3.2,R,ugm-3
10-01-2006,06:00,12,R,ugm-3 (GRAV EQ),1.0,R,ugm-3,7.1,R,ugm-3,8.6,R,ugm-3,78,R,ugm-3,0.5,R,ugm-3
10-01-2006,07:00,13,R,ugm-3 (GRAV EQ),1.0,R,ugm-3,7.8,R,ugm-3,9.4,R,ugm-3,80,R,ugm-3,2.7,R,ugm-3
10-01-2006,08:00,14,R,ugm-3 (GRAV EQ),1.0,R,ugm-3,8.6,R,ugm-3,10.1,R,ugm-3,80,R,ugm-3,2.7,R,ugm-3
10-01-2006,09:00,12,R,ugm-3 (GRAV EQ),1.0,R,ugm-3,8.6,R,ugm-3,10.1,R,ugm-3,82,R,ugm-3,0.5,R,ugm-3
10-01-2006,10:00,10,R,ugm-3 (GRAV EQ),1.0,R,ugm-3,8.6,R,ugm-3,10.1,R,ugm-3,82,R,ugm-3,1.6,R,ugm-3
10-01-2006,11:00,8,R,ugm-3 (GRAV EQ),1.0,R,ugm-3,8.2,R,ugm-3,9.7,R,ugm-3,82,R,ugm-3,2.1,R,ugm-3
10-01-2006,12:00,7,R,ugm-3 (GRAV EQ),1.0,R,ugm-3,7.1,R,ugm-3,8.6,R,ugm-3,84,R,ugm-3,1.6,R,ugm-3
10-01-2006,13:00,7,R,ugm-3 (GRAV EQ),1.0,R,ugm-3,6.7,R,ugm-3,8.2,R,ugm-3,82,R,ugm-3,2.7,R,ugm-3
10-01-2006,14:00,5,R,ugm-3 (GRAV EQ),1.0,R,ugm-3,7.1,R,ugm-3,8.6,R,ugm-3,86,R,ugm-3,0.0,R,ugm-3
10-01-2006,15:00,4,R,ugm-3 (GRAV EQ),1.0,R,ugm-3,7.1,R,ugm-3,8.6,R,ugm-3,86,R,ugm-3,1.6,R,ugm-3
10-01-2006,16:00,4,R,ugm-3 (GRAV EQ),2.8,R,ugm-3,4.4,R,ugm-3,8.6,R,ugm-3,86,R,ugm-3,2.1,R,ugm-3
10-01-2006,17:00,4,R,ugm-3 (GRAV EQ),1.0,R,ugm-3,6.3,R,ugm-3,7.8,R,ugm-3,90,R,ugm-3,1.1,R,ugm-3
10-01-2006,18:00,9,R,ugm-3 (GRAV EQ),1.0,R,ugm-3,5.9,R,ugm-3,7.4,R,ugm-3,90,R,ugm-3,0.5,R,ugm-3
10-01-2006,19:00,13,R,ugm-3 (GRAV EQ),0.8,R,ugm-3,6.3,R,ugm-3,7.4,R,ugm-3,90,R,ugm-3,2.1,R,ugm-3
10-01-2006,20:00,20,R,ugm-3 (GRAV EQ),1.0,R,ugm-3,5.2,R,ugm-3,6.7,R,ugm-3,90,R,ugm-3,2.1,R,ugm-3
10-01-2006,21:00,20,R,ugm-3 (GRAV EQ),1.0,R,ugm-3,5.5,R,ugm-3,7.1,R,ugm-3,90,R,ugm-3,1.6,R,ugm-3
10-01-2006,22:00,17,R,ugm-3 (GRAV EQ),1.0,R,ugm-3,4.0,R,ugm-3,5.5,R,ugm-3,90,R,ugm-3,1.6,R,ugm-3
10-01-2006,23:00,14,R,ugm-3 (GRAV EQ),1.0,R,ugm-3,4.4,R,ugm-3,5.9,R,ugm-3,90,R,ugm-3,1.1,R,ugm-3
10-01-2006,24:00,12,R,ugm-3 (GRAV EQ),1.0,R,ugm-3,5.5,R,ugm-3,7.1,R,ugm-3,92,R,ugm-3,1.1,R,ugm-3
11-01-2006,01:00,13,R,ugm-3 (GRAV EQ),0.6,R,ugm-3,1.5,R,ugm-3,2.5,R,ugm-3,92,R,ugm-3,1.3,R,ugm-3
11-01-2006,02:00,8,R,ugm-3 (GRAV EQ),1.0,R,ugm-3,2.1,R,ugm-3,3.6,R,ugm-3,,,,,,
11-01-2006,03:00,10,R,ugm-3 (GRAV EQ),0.8,R,ugm-3,3.4,R,ugm-3,4.6,R,ugm-3,90,R,ugm-3,2.1,R,ugm-3